Regional Weather Roundup
Issued by NWS

Home | Current Version | Previous Version | Text Only | Print | Product List | Glossary Off
Versions: 1 2 3 4 5 6 7 8 9 10 11 12 13 14 15 16 17 18 19 20 21 22 23 24 25 26 27 28 29 30 31 32 33 34 35 36 37 38 39 40 41 42 43 44 45 46 47 48 49 50

340
ASUS43 KOAX 161302
RWRNE

WEATHER ROUNDUP FOR NEBRASKA
NATIONAL WEATHER SERVICE OMAHA NE
800 AM CDT WED AUG 16 2017

NOTES: SATELLITE DATA IS BEING USED TO AUGMENT CLOUD COVER ABOVE
       12000 FEET.
       "FAIR" INDICATES FEW OR NO CLOUDS BELOW 12,000 FEET WITH NO
       SIGNIFICANT WEATHER AND/OR OBSTRUCTIONS TO VISIBILITY.


NEZ001>004-019>022-054>056-161400-
NEBRASKA PANHANDLE

CITY           SKY/WX    TMP DP  RH WIND       PRES   REMARKS
SCOTTSBLUFF    CLEAR     58  55  90 NW8       30.01R
ALLIANCE       CLOUDY    58  55  90 NW10      29.97R
CHADRON        CLOUDY    61  58  90 CALM      29.99R
GORDON         CLOUDY    60  57  91 N9        29.96R
KIMBALL        CLEAR     57  57  99 NW9       30.05R
SIDNEY         CLOUDY    58  55  90 NW10      30.01R
$$

NEZ057>060-069>072-079>082-161400-
SOUTHWEST NEBRASKA

CITY           SKY/WX    TMP DP  RH WIND       PRES   REMARKS
NORTH PLATTE   MOSUNNY   61  59  93 NW8       29.90R
IMPERIAL       CLOUDY    62  58  86 W5        29.94R
LEXINGTON      MOSUNNY   61  59  93 NW10      29.86R
MCCOOK         CLOUDY    62  61  96 W12       29.92R
OGALLALA       CLOUDY    63  60  91 W6        29.93F
$$

NEZ005>010-023>029-035>040-094-161400-
NORTH CENTRAL NEBRASKA

CITY           SKY/WX    TMP DP  RH WIND       PRES   REMARKS
VALENTINE      CLOUDY    64  59  83 W5        29.88R
AINSWORTH      CLOUDY    62  62  99 CALM      29.87F
BROKEN BOW     CLOUDY    62  60  93 NW12      29.86R
O`NEILL        CLOUDY    64  64 100 NE6       29.85R
ORD            CLOUDY    63  60  90 NW8       29.82R
THEDFORD       CLOUDY    61  60  96 NW8       29.90F
$$

NEZ041-046>049-061>064-073>077-083>087-161400-
SOUTH CENTRAL NEBRASKA

CITY           SKY/WX    TMP DP  RH WIND       PRES   REMARKS
GRAND ISLAND   LGT RAIN  63  63 100 NE5       29.75F
AURORA         RAIN      62  62 100 SE6       29.76R
HASTINGS       CLOUDY    64  61  90 E10G20    29.69F
HEBRON         RAIN      65  64  97 E3        29.80F
HOLDREGE       MOSUNNY   61  59  94 W7        29.85R
KEARNEY        PTSUNNY   63  61  93 NW13      29.83R
YORK           LGT RAIN  64  64 100 CALM      29.78F
$$

NEZ011>018-030>034-042>045-161400-
NORTHEAST NEBRASKA

CITY           SKY/WX    TMP DP  RH WIND       PRES   REMARKS
NORFOLK        CLOUDY    66  64  93 E7        29.77R
ALBION         LGT RAIN  66  65  96 NE5       29.80S
BLAIR          RAIN      70  69  96 CALM      29.79S
COLUMBUS       LGT RAIN  67  66  97 VRB3      29.80R
FREMONT        CLOUDY    68  67  96 NE8       29.78F
TEKAMAH        TSTM      68  66  93 N6        29.79S FOG
WAYNE          RAIN      66  64  91 E15       29.78F
$$

NEZ050>053-065>068-078-088>093-161400-
SOUTHEAST NEBRASKA

CITY           SKY/WX    TMP DP  RH WIND       PRES   REMARKS
LINCOLN        LGT RAIN  71  69  93 W8        29.79R
OMAHA EPPLEY   CLOUDY    74  69  85 SE9       29.78R
BEATRICE       RAIN      67  64  91 NW8       29.82S
FALLS CITY     PTSUNNY   75  71  87 S10       29.78S
NEBRASKA CITY  CLOUDY    73  73 100 S7        29.78F
PLATTSMOUTH    CLOUDY    73  70  89 SE9       29.78S
$$

NEZ044-045-051>053-067-161400-
OMAHA AREA

CITY           SKY/WX    TMP DP  RH WIND       PRES   REMARKS
OMAHA EPPLEY   CLOUDY    74  69  85 SE9       29.78R
BLAIR          RAIN      70  69  96 CALM      29.79S
FREMONT        CLOUDY    68  67  96 NE8       29.78F
MILLARD        CLOUDY    73  71  93 E3        29.78S
OFFUTT AFB     PTSUNNY   73  69  87 SE7       29.77R
PLATTSMOUTH    CLOUDY    73  70  89 SE9       29.78S
WAHOO          LGT RAIN  69  67  96 NE9       29.77F
$$




USA.gov is the U.S. government's official web portal to all federal, state and local government web resources and services.